KU9TRY Weather Reports


time (UTC)temp
F
wind
direction
speed
knots
gust
knots
rain 1hr
in
rain 24hr
in
rain mn
in
humidity
%
barometer
mb
20260906025940 77 284 0.0 0.0 0.00 0.00 0.00 87 1012.9
20260906025440 77 284 0.0 0.0 0.00 0.00 0.00 87 1012.9
20260906024938 77 284 0.0 0.0 0.00 0.00 0.00 86 1013.0
20260906024439 77 284 0.0 0.0 0.00 0.00 0.00 86 1013.0
20260906023939 77 285 0.0 0.0 0.00 0.00 0.00 86 1012.9
20260906023436 78 284 0.0 0.0 0.00 0.00 0.00 86 1012.8
20260906022936 78 284 0.0 0.0 0.00 0.00 0.00 85 1012.5
20260906022431 78 284 0.0 0.0 0.00 0.00 0.00 85 1012.5
20260906021926 78 284 0.0 0.0 0.00 0.00 0.00 85 1012.5
20260906021427 78 284 0.0 0.0 0.00 0.00 0.00 85 1012.4
20260906020926 78 284 0.0 0.0 0.00 0.00 0.00 85 1012.3
20260906020421 78 284 0.0 0.0 0.00 0.00 0.00 85 1012.1
20260906015921 78 284 0.0 0.0 0.00 0.00 0.00 85 1012.1
20260906015421 78 284 0.0 0.0 0.00 0.00 0.00 84 1012.2
20260906014920 79 284 0.0 0.0 0.00 0.00 0.00 84 1012.0
20260906014420 79 284 0.0 0.0 0.00 0.00 0.00 83 1012.2
20260906013916 79 284 0.0 0.0 0.00 0.00 0.00 83 1012.3
20260906013412 80 284 0.0 0.0 0.00 0.00 0.00 82 1012.3
20260906012907 80 284 0.0 0.0 0.00 0.00 0.00 81 1012.3
20260906012402 80 284 0.0 0.0 0.00 0.00 0.00 80 1012.2
20260906011901 80 285 0.0 0.0 0.00 0.00 0.00 80 1012.3
20260906011356 80 285 0.0 0.0 0.00 0.00 0.00 79 1012.2
20260906010852 80 285 0.0 0.0 0.00 0.00 0.00 79 1012.1
20260906010348 80 285 0.0 0.0 0.00 0.00 0.00 80 1012.0
20260906005844 81 285 0.0 0.0 0.00 0.00 0.00 80 1012.1
20260906005343 81 285 0.0 0.0 0.00 0.00 0.00 78 1012.1
20260906004842 81 285 0.0 0.0 0.00 0.00 0.00 78 1012.1
20260906004342 81 285 0.0 0.0 0.00 0.00 0.00 77 1012.0
20260906003837 81 285 0.0 0.0 0.00 0.00 0.00 78 1012.3
20260906003332 82 284 0.0 0.0 0.00 0.00 0.00 75 1012.1
20260906002827 82 284 0.0 0.0 0.00 0.00 0.00 75 1012.3
20260906002327 82 294 0.0 0.0 0.00 0.00 0.00 75 1012.2
20260906001823 82 294 0.0 0.0 0.00 0.00 0.00 75 1012.3
20260906001318 82 295 0.0 0.0 0.00 0.00 0.00 74 1012.4
20260906000813 82 295 0.0 0.0 0.00 0.00 0.00 74 1012.3
20260906000307 83 295 0.0 0.0 0.00 0.00 0.00 74 1012.2
20260905235802 83 295 0.0 0.0 0.00 0.00 0.00 72 1011.9
20260905235306 83 295 0.0 0.0 0.00 0.00 0.00 73 1012.1
20260905234758 84 283 0.0 0.0 0.00 0.00 0.00 71 1012.1
20260905234253 84 283 0.0 0.0 0.00 0.00 0.00 71 1011.9
20260905233748 85 284 0.9 0.9 0.00 0.00 0.00 69 1011.8
20260905233248 85 290 0.9 0.9 0.00 0.00 0.00 68 1011.6
20260905232747 85 279 0.0 0.0 0.00 0.00 0.00 68 1011.6
20260905232243 85 285 0.0 0.0 0.00 0.00 0.00 68 1011.7
20260905231739 86 284 0.0 0.0 0.00 0.00 0.00 67 1011.4
20260905231234 86 287 0.9 0.9 0.00 0.00 0.00 66 1011.5
20260905230730 86 290 0.0 0.0 0.00 0.00 0.00 65 1011.5
20260905230228 86 275 1.7 1.7 0.00 0.00 0.00 65 1011.7
20260905225728 86 276 1.7 1.7 0.00 0.00 0.00 63 1011.6
20260905225223 86 284 0.9 0.9 0.00 0.00 0.00 64 1011.6
20260905224722 86 285 0.9 0.9 0.00 0.00 0.00 64 1011.9
20260905224217 87 270 1.7 1.7 0.00 0.00 0.00 64 1011.9
20260905223714 87 287 0.0 0.0 0.00 0.00 0.00 63 1012.0
20260905223210 87 270 0.0 0.0 0.00 0.00 0.00 64 1012.0
20260905222706 87 278 0.9 0.9 0.00 0.00 0.00 63 1012.0
20260905222205 88 279 0.9 0.9 0.00 0.00 0.00 62 1012.1
20260905221700 88 281 0.0 0.0 0.00 0.00 0.00 59 1012.2
20260905221158 88 287 0.9 0.9 0.00 0.00 0.00 60 1012.2
20260905220653 89 322 0.0 0.0 0.00 0.00 0.00 58 1012.2
20260905220149 87 292 0.9 0.9 0.00 0.00 0.00 59 1012.1
20260905215648 87 281 0.0 0.0 0.00 0.00 0.00 61 1011.9
20260905215144 87 282 0.0 0.0 0.00 0.00 0.00 61 1011.8
20260905214641 87 282 0.0 0.0 0.00 0.00 0.00 60 1012.1
20260905214140 88 281 0.9 0.9 0.00 0.00 0.00 60 1012.1
20260905213636 88 282 0.0 0.0 0.00 0.00 0.00 61 1012.1
20260905213131 89 282 0.0 0.0 0.00 0.00 0.00 61 1012.3
20260905212627 89 282 0.0 0.0 0.00 0.00 0.00 60 1012.1
20260905212127 89 282 0.0 0.0 0.00 0.00 0.00 55 1012.2
20260905211627 88 315 0.0 0.0 0.00 0.00 0.00 59 1012.3
20260905211122 87 356 0.0 0.0 0.00 0.00 0.00 63 1012.2
20260905210619 87 292 0.0 0.0 0.00 0.00 0.00 64 1012.3
20260905210113 87 300 0.0 0.0 0.00 0.00 0.00 62 1012.2
20260905205613 86 296 0.0 0.0 0.00 0.00 0.00 63 1012.2
20260905205112 87 286 0.9 0.9 0.00 0.00 0.00 63 1012.4
20260905204612 86 306 0.0 0.0 0.00 0.00 0.00 60 1012.5
20260905204107 86 289 0.0 0.0 0.00 0.00 0.00 60 1012.3
20260905203602 86 278 0.9 0.9 0.00 0.00 0.00 61 1012.3
20260905203057 86 279 0.0 0.0 0.00 0.00 0.00 60 1012.4
20260905202553 86 279 0.9 0.9 0.00 0.00 0.00 59 1012.6
20260905202048 86 279 0.9 0.9 0.00 0.00 0.00 61 1012.7
20260905201543 87 283 0.0 0.0 0.00 0.00 0.00 57 1012.7
20260905201043 87 282 0.0 0.0 0.00 0.00 0.00 59 1012.6
20260905200538 88 289 0.0 0.0 0.00 0.00 0.00 55 1012.7
20260905200038 89 293 0.0 0.0 0.00 0.00 0.00 53 1012.9
20260905195532 89 293 0.0 0.0 0.00 0.00 0.00 51 1012.6
20260905195028 89 293 0.0 0.0 0.00 0.00 0.00 48 1012.9
20260905194527 89 287 0.9 0.9 0.00 0.00 0.00 48 1012.8
20260905194027 88 323 0.9 0.9 0.00 0.00 0.00 48 1013.1
20260905193521 88 310 0.9 0.9 0.00 0.00 0.00 49 1013.0
20260905193017 87 183 4.3 6.1 0.00 0.00 0.00 51 1013.2
20260905192512 86 226 0.9 1.7 0.00 0.00 0.00 53 1013.2
20260905192008 85 287 0.9 0.9 0.00 0.00 0.00 57 1013.6
20260905191507 84 304 0.0 0.0 0.00 0.00 0.00 60 1013.7
20260905191007 84 317 5.2 7.8 0.00 0.00 0.00 59 1014.1
20260905190504 84 296 3.5 5.2 0.00 0.00 0.00 58 1013.9
20260905190003 85 9 3.5 5.2 0.00 0.00 0.00 55 1014.2
20260905185458 87 10 10.4 13.0 0.00 0.00 0.00 56 1014.7
20260905184957 91 330 6.1 7.8 0.00 0.00 0.00 55 1014.1
20260905184452 97 21 6.1 9.6 0.00 0.00 0.00 47 1014.1
20260905183951 98 347 1.7 2.6 0.00 0.00 0.00 44 1013.5
20260905183450 99 351 4.3 6.1 0.00 0.00 0.00 43 1013.4
20260905182945 98 347 0.0 0.0 0.00 0.00 0.00 46 1013.0
20260905182445 98 339 3.5 2.6 0.00 0.00 0.00 44 1013.1
20260905181940 98 317 0.0 0.0 0.00 0.00 0.00 44 1013.1
20260905181435 97 285 1.7 1.7 0.00 0.00 0.00 44 1013.3
20260905180934 98 353 1.7 1.7 0.00 0.00 0.00 43 1013.5
20260905180429 98 339 3.5 3.5 0.00 0.00 0.00 44 1013.4
20260905175924 97 315 0.9 0.9 0.00 0.00 0.00 46 1013.6
20260905175423 98 351 2.6 2.6 0.00 0.00 0.00 45 1013.6
20260905174919 97 300 0.9 1.7 0.00 0.00 0.00 44 1013.6
20260905174414 97 0 0.0 0.0 0.00 0.00 0.00 49 1013.7
20260905173910 96 216 2.6 2.6 0.00 0.00 0.00 49 1013.6
20260905173407 97 170 3.5 3.5 0.00 0.00 0.00 49 1014.0
20260905172907 97 340 1.7 2.6 0.00 0.00 0.00 48 1013.9
20260905172404 96 317 0.9 0.9 0.00 0.00 0.00 50 1014.0
20260905171900 96 313 0.9 0.9 0.00 0.00 0.00 50 1013.8
20260905171357 95 331 0.9 0.9 0.00 0.00 0.00 52 1014.1
20260905170853 95 347 3.5 3.5 0.00 0.00 0.00 51 1014.2
20260905170349 95 103 1.7 1.7 0.00 0.00 0.00 52 1014.1
20260905165848 94 237 0.9 1.7 0.00 0.00 0.00 54 1014.3
20260905165343 94 343 0.9 1.7 0.00 0.00 0.00 55 1014.3
20260905164838 94 208 2.6 2.6 0.00 0.00 0.00 53 1014.5
20260905164333 93 292 1.7 1.7 0.00 0.00 0.00 55 1014.6
20260905163829 92 179 2.6 2.6 0.00 0.00 0.00 57 1014.5
20260905163325 93 177 3.5 3.5 0.00 0.00 0.00 57 1014.7
20260905162821 93 263 3.5 3.5 0.00 0.00 0.00 56 1014.8
20260905162320 92 313 0.0 0.0 0.00 0.00 0.00 56 1015.0
20260905161815 92 317 0.0 0.0 0.00 0.00 0.00 57 1014.8
20260905161314 92 348 3.5 3.5 0.00 0.00 0.00 58 1014.9
20260905160812 91 321 0.9 1.7 0.00 0.00 0.00 60 1014.8
20260905160307 90 320 0.9 0.9 0.00 0.00 0.00 60 1015.0
20260905155802 89 340 1.7 2.6 0.00 0.00 0.00 62 1015.0
20260905155300 89 335 1.7 1.7 0.00 0.00 0.00 63 1015.2
20260905154755 89 0 0.9 0.9 0.00 0.00 0.00 67 1015.1
20260905154251 89 344 1.7 1.7 0.00 0.00 0.00 69 1015.3
20260905153746 87 307 0.9 0.9 0.00 0.00 0.00 71 1015.1
20260905153242 86 306 0.0 0.0 0.00 0.00 0.00 73 1015.2
20260905152737 86 325 0.9 0.9 0.00 0.00 0.00 74 1015.1
20260905152237 86 321 0.0 0.0 0.00 0.00 0.00 74 1015.2
20260905151736 86 310 0.0 0.0 0.00 0.00 0.00 74 1015.2
20260905151233 86 285 0.9 0.9 0.00 0.00 0.00 74 1015.1
20260905150732 86 311 0.0 0.0 0.00 0.00 0.00 74 1015.3
20260905150231 86 315 0.9 0.9 0.00 0.00 0.00 74 1015.3
20260905145729 85 307 0.9 0.9 0.00 0.00 0.00 75 1015.4
20260905145224 85 313 0.0 0.0 0.00 0.00 0.00 76 1015.4
20260905144723 85 321 1.7 1.7 0.00 0.00 0.00 77 1015.5
20260905144218 85 341 2.6 2.6 0.00 0.00 0.00 76 1015.5
20260905143717 84 310 0.0 0.0 0.00 0.00 0.00 77 1015.5
20260905143217 84 321 0.9 0.9 0.00 0.00 0.00 78 1015.5
20260905142715 83 328 0.9 0.9 0.00 0.00 0.00 79 1015.6
20260905142210 82 317 0.0 0.0 0.00 0.00 0.00 81 1015.4
20260905141706 82 325 0.9 0.9 0.00 0.00 0.00 83 1015.7
20260905141202 81 326 1.7 0.9 0.00 0.00 0.00 83 1015.4
20260905140657 81 319 0.0 0.0 0.00 0.00 0.00 84 1015.4
20260905140151 81 325 0.0 0.0 0.00 0.00 0.00 84 1015.5
20260905135646 80 321 0.0 0.0 0.00 0.00 0.00 85 1015.6
20260905135142 80 321 0.0 0.0 0.00 0.00 0.00 86 1015.5
20260905134641 79 323 0.0 0.0 0.00 0.00 0.00 87 1015.6
20260905134140 78 309 0.0 0.0 0.00 0.00 0.00 89 1015.5
20260905133636 78 299 0.0 0.0 0.00 0.00 0.00 89 1015.7
20260905133136 77 321 0.0 0.0 0.00 0.00 0.00 90 1015.6
20260905132635 77 293 0.0 0.0 0.00 0.00 0.00 90 1015.8
20260905132130 76 293 0.0 0.0 0.00 0.00 0.00 91 1015.8
20260905131625 76 293 0.0 0.0 0.00 0.00 0.00 91 1015.8
20260905131121 75 293 0.0 0.0 0.00 0.00 0.00 93 1015.9
20260905130621 75 293 0.0 0.0 0.00 0.00 0.00 92 1015.9
20260905130115 75 291 0.0 0.0 0.00 0.00 0.00 93 1015.9
20260905125615 75 291 0.0 0.0 0.00 0.00 0.00 94 1015.7
20260905125110 74 290 0.0 0.0 0.00 0.00 0.00 95 1015.9
20260905124607 74 290 0.0 0.0 0.00 0.00 0.00 95 1016.1
20260905124103 74 290 0.0 0.0 0.00 0.00 0.00 95 1015.9
20260905123558 73 290 0.0 0.0 0.00 0.00 0.00 95 1016.0
20260905123055 73 290 0.0 0.0 0.00 0.00 0.00 96 1016.1
20260905122555 73 290 0.0 0.0 0.00 0.00 0.00 96 1015.9
20260905122055 73 290 0.0 0.0 0.00 0.00 0.00 97 1015.7
20260905121549 73 290 0.0 0.0 0.00 0.00 0.00 97 1015.7
20260905121045 73 290 0.0 0.0 0.00 0.00 0.00 98 1015.7
20260905120544 72 290 0.0 0.0 0.00 0.00 0.00 98 1015.6
20260905120039 72 290 0.0 0.0 0.00 0.00 0.00 98 1015.6
20260905115538 72 290 0.0 0.0 0.00 0.00 0.00 98 1015.7
20260905115033 72 290 0.0 0.0 0.00 0.00 0.00 98 1015.4
20260905114532 72 290 0.0 0.0 0.00 0.00 0.00 98 1015.6
20260905114031 72 290 0.0 0.0 0.00 0.00 0.00 98 1015.3
20260905113527 72 290 0.0 0.0 0.00 0.00 0.00 98 1015.2
20260905113022 71 290 0.0 0.0 0.00 0.00 0.00 98 1015.2
20260905112517 71 289 0.0 0.0 0.00 0.00 0.00 98 1015.1
20260905112012 71 290 0.0 0.0 0.00 0.00 0.00 98 1015.2
20260905111507 71 289 0.0 0.0 0.00 0.00 0.00 98 1015.1
20260905111001 71 289 0.0 0.0 0.00 0.00 0.00 98 1015.0
20260905110501 71 289 0.0 0.0 0.00 0.00 0.00 98 1015.1
20260905110001 72 289 0.0 0.0 0.00 0.00 0.00 98 1014.9
20260905105455 72 289 0.0 0.0 0.00 0.00 0.00 98 1014.8
20260905104955 71 289 0.0 0.0 0.00 0.00 0.00 98 1014.7
20260905104451 71 289 0.0 0.0 0.00 0.00 0.00 98 1014.6
20260905103951 71 289 0.0 0.0 0.00 0.00 0.00 98 1014.8
20260905103446 71 289 0.0 0.0 0.00 0.00 0.00 98 1014.7
20260905102942 71 289 0.0 0.0 0.00 0.00 0.00 98 1014.8
20260905102438 72 289 0.0 0.0 0.00 0.00 0.00 98 1014.5
20260905101933 71 289 0.0 0.0 0.00 0.00 0.00 98 1014.6
20260905101431 71 289 0.0 0.0 0.00 0.00 0.00 98 1014.6
20260905100926 71 289 0.0 0.0 0.00 0.00 0.00 98 1014.5
20260905100422 71 289 0.0 0.0 0.00 0.00 0.00 98 1014.6
20260905095921 71 289 0.0 0.0 0.00 0.00 0.00 98 1014.6
20260905095421 72 289 0.0 0.0 0.00 0.00 0.00 98 1014.3
20260905094921 72 288 0.0 0.0 0.00 0.00 0.00 98 1014.4
20260905094417 72 288 0.0 0.0 0.00 0.00 0.00 98 1014.4
20260905093916 71 288 0.0 0.0 0.00 0.00 0.00 98 1014.4
20260905093412 72 288 0.0 0.0 0.00 0.00 0.00 98 1014.4
20260905092907 72 288 0.0 0.0 0.00 0.00 0.00 98 1014.1
20260905092408 72 288 0.0 0.0 0.00 0.00 0.00 98 1014.2
20260905091903 72 288 0.0 0.0 0.00 0.00 0.00 98 1014.4
20260905091403 72 288 0.0 0.0 0.00 0.00 0.00 98 1014.3
20260905090902 72 288 0.0 0.0 0.00 0.00 0.00 98 1014.2
20260905090357 72 288 0.0 0.0 0.00 0.00 0.00 98 1014.0
20260905085856 72 288 0.0 0.0 0.00 0.00 0.00 98 1014.3
20260905085351 72 288 0.0 0.0 0.00 0.00 0.00 97 1014.3
20260905084848 72 288 0.0 0.0 0.00 0.00 0.00 97 1014.2
20260905084346 72 288 0.0 0.0 0.00 0.00 0.00 97 1014.3
20260905083841 72 288 0.0 0.0 0.00 0.00 0.00 98 1014.4
20260905083337 72 288 0.0 0.0 0.00 0.00 0.00 98 1014.5
20260905082832 72 288 0.0 0.0 0.00 0.00 0.00 97 1014.4
20260905082328 72 288 0.0 0.0 0.00 0.00 0.00 97 1014.5
20260905081829 72 288 0.0 0.0 0.00 0.00 0.00 97 1014.3
20260905081324 72 288 0.0 0.0 0.00 0.00 0.00 97 1014.3
20260905080823 72 288 0.0 0.0 0.00 0.00 0.00 97 1014.2
20260905080318 72 288 0.0 0.0 0.00 0.00 0.00 97 1014.4
20260905075816 73 288 0.0 0.0 0.00 0.00 0.00 97 1014.3
20260905075316 73 288 0.0 0.0 0.00 0.00 0.00 97 1014.5
20260905074815 73 288 0.0 0.0 0.00 0.00 0.00 97 1014.5
20260905074311 73 288 0.0 0.0 0.00 0.00 0.00 97 1014.6
20260905073807 73 288 0.0 0.0 0.00 0.00 0.00 97 1014.5
20260905073302 73 288 0.0 0.0 0.00 0.00 0.00 97 1014.6
20260905072802 72 288 0.0 0.0 0.00 0.00 0.00 96 1014.3
20260905072257 73 288 0.0 0.0 0.00 0.00 0.00 97 1014.5
20260905071754 73 288 0.0 0.0 0.00 0.00 0.00 97 1014.5
20260905071249 73 288 0.0 0.0 0.00 0.00 0.00 96 1014.4
20260905070744 73 288 0.0 0.0 0.00 0.00 0.00 96 1014.6
20260905070241 73 288 0.0 0.0 0.00 0.00 0.00 97 1014.7
20260905065739 73 288 0.0 0.0 0.00 0.00 0.00 96 1014.7
20260905065238 73 288 0.0 0.0 0.00 0.00 0.00 96 1014.6
20260905064734 73 288 0.0 0.0 0.00 0.00 0.00 96 1014.6
20260905064229 73 288 0.0 0.0 0.00 0.00 0.00 96 1014.6
20260905063728 73 288 0.0 0.0 0.00 0.00 0.00 96 1014.6
20260905063224 73 288 0.0 0.0 0.00 0.00 0.00 95 1014.6
20260905062719 73 289 0.0 0.0 0.00 0.00 0.00 95 1014.9
20260905062214 74 289 0.0 0.0 0.00 0.00 0.00 95 1015.0
20260905061714 74 289 0.0 0.0 0.00 0.00 0.00 95 1014.9
20260905061208 74 289 0.0 0.0 0.00 0.00 0.00 96 1014.9
20260905060703 74 289 0.0 0.0 0.00 0.00 0.00 95 1014.9
20260905060200 74 289 0.0 0.0 0.00 0.00 0.00 95 1014.8
20260905055658 74 289 0.0 0.0 0.00 0.00 0.00 95 1015.0
20260905055154 74 289 0.0 0.0 0.00 0.00 0.00 95 1014.9
20260905054649 74 289 0.0 0.0 0.00 0.00 0.00 95 1015.1
20260905054145 74 289 0.0 0.0 0.00 0.00 0.00 94 1015.0
20260905053644 75 289 0.0 0.0 0.00 0.00 0.00 95 1014.9
20260905053139 74 289 0.0 0.0 0.00 0.00 0.00 95 1015.0
20260905052639 74 289 0.0 0.0 0.00 0.00 0.00 95 1014.9
20260905052134 74 289 0.0 0.0 0.00 0.00 0.00 95 1014.8
20260905051629 74 289 0.0 0.0 0.00 0.00 0.00 94 1014.7
20260905051126 74 289 0.0 0.0 0.00 0.00 0.00 94 1014.8
20260905050622 74 289 0.0 0.0 0.00 0.00 0.00 93 1014.8
20260905050119 75 289 0.0 0.0 0.00 0.00 0.00 93 1014.8
20260905045618 75 289 0.0 0.0 0.00 0.00 0.00 94 1014.9
20260905045114 75 289 0.0 0.0 0.00 0.00 0.00 93 1014.9
20260905044613 75 289 0.0 0.0 0.00 0.00 0.00 92 1014.9
20260905044108 75 289 0.0 0.0 0.00 0.00 0.00 92 1014.8
20260905043607 75 289 0.0 0.0 0.00 0.00 0.00 92 1014.8
20260905043103 76 289 0.0 0.0 0.00 0.00 0.00 92 1014.8
20260905042601 76 289 0.0 0.0 0.00 0.00 0.00 92 1015.0
20260905042056 76 289 0.0 0.0 0.00 0.00 0.00 92 1015.0
20260905041552 76 289 0.0 0.0 0.00 0.00 0.00 92 1015.0
20260905041047 76 289 0.0 0.0 0.00 0.00 0.00 92 1014.8
20260905040547 76 289 0.0 0.0 0.00 0.00 0.00 91 1014.9
20260905040046 76 289 0.0 0.0 0.00 0.00 0.00 91 1015.0
20260905035541 76 289 0.0 0.0 0.00 0.00 0.00 91 1015.0
20260905035038 76 289 0.0 0.0 0.00 0.00 0.00 90 1015.1
20260905034533 77 289 0.0 0.0 0.00 0.00 0.00 89 1015.2
20260905034033 77 289 0.0 0.0 0.00 0.00 0.00 90 1015.2
20260905033527 77 289 0.0 0.0 0.00 0.00 0.00 90 1015.3
20260905033023 77 289 0.0 0.0 0.00 0.00 0.00 89 1015.3
20260905032518 77 289 0.0 0.0 0.00 0.00 0.00 87 1015.4
20260905032013 78 289 0.0 0.0 0.00 0.00 0.00 88 1015.3
20260905031509 78 289 0.0 0.0 0.00 0.00 0.00 88 1015.3
20260905031009 78 289 0.0 0.0 0.00 0.00 0.00 88 1015.5
20260905030504 78 289 0.0 0.9 0.00 0.00 0.00 88 1015.6